Location: Taipo
(41.0000°S, 175.9500°E)
Time: 17:37:51
(UTC+00:00)

Cosmos 2278 Rocket - Visible Passes

Search period start: 22 July 2024 00:00
Search period end: 01 August 2024 00:00
Orbit: 841 x 844 km, 71.0° (Epoch: 22 July)

Date Brightness Start Highest point End Pass type
(mag) Time Alt. Az. Time Alt. Az. Time Alt. Az.
22 Jul 3.3 05:44:12 10° S 05:48:40 23° SE 05:53:05 10° ENE visible
22 Jul 2.7 07:27:31 10° SSW 07:33:08 58° WNW 07:38:41 10° N visible
23 Jul 2.7 07:12:44 10° SSW 07:18:23 61° WNW 07:23:58 10° N visible
24 Jul 2.6 06:57:58 10° SSW 07:03:39 64° WNW 07:09:15 10° N visible
25 Jul 2.6 06:43:13 10° SSW 06:48:54 67° WNW 06:54:31 10° N visible
26 Jul 2.5 06:28:27 10° SSW 06:34:10 70° WNW 06:39:49 10° NNE visible
27 Jul 2.5 06:13:41 10° SSW 06:19:25 74° WNW 06:25:05 10° NNE visible
28 Jul 2.5 05:58:56 10° SSW 06:04:41 77° WNW 06:10:21 10° NNE visible
29 Jul 2.4 05:44:10 10° SSW 05:49:55 81° WNW 05:55:37 10° NNE visible
29 Jul 4.6 18:52:15 10° NNE 18:57:06 30° ENE 19:01:59 10° SE visible
30 Jul 5.7 07:17:12 10° W 07:18:16 10° W 07:19:20 10° WNW visible
30 Jul 4.6 18:37:36 10° NNE 18:42:22 28° ENE 18:47:11 10° SE visible
31 Jul 5.7 07:01:57 10° WSW 07:03:34 11° W 07:05:11 10° WNW visible
31 Jul 4.6 18:22:59 10° NNE 18:27:39 27° ENE 18:32:22 10° SE visible
